Weather History for Tillamook, OR

Change the Weather History Date:

Thursday, October 4, 2012

  Actual Average (KMMV) Record (KMMV)
Temperature  
Mean Temperature 57 °F 56 °F  
Max Temperature 77 °F 68 °F 90 °F (1917)
Min Temperature 37 °F 43 °F 24 °F (1916)
Degree Days  
Heating Degree Days 8 9  
Month to date heating degree days 35  
Since 1 July heating degree days 251  
Cooling Degree Days 0 0  
Month to date cooling degree days 0  
Year to date cooling degree days 214  
Growing Degree Days 7 (Base 50)    
Moisture  
Dew Point 30 °F    
Average Humidity 46    
Maximum Humidity 87    
Minimum Humidity 12    
Precipitation  
Precipitation 0.00 in 0.06 in 1.09 in (1939)
Month to date precipitation 0.25  
Year to date precipitation 23.96  
Sea Level Pressure  
Sea Level Pressure 30.14 in    
Wind  
Wind Speed 3 mph (East)    
Max Wind Speed 13 mph    
Max Gust Speed 18 mph    
T = Trace of Precipitation, MM = Missing Value Source: NWS Daily Summary

Daily Weather History Graph

Daily Weather History Graph

Search for Another Location

Airport:

Trip Planner

Search our weather history database for the weather conditions in past years. The results will help you decide how hot, cold, wet, or windy it might be!

Date:

Astronomy

Oct. 04, 2012 Rise Set
Actual Time 8:17 AM MDT 7:48 PM MDT
Civil Twilight 7:48 AM MDT 8:18 PM MDT
Nautical Twilight 7:14 AM MDT 8:52 PM MDT
Astronomical Twilight 6:39 AM MDT 9:26 PM MDT
Moon 10:15 PM MDT (10/4) 12:53 PM MDT (10/4)
Length of Visible Light 12h 29m
Length of Day
11h 30m
Waning Gibbous, 81% of the Moon is Illuminated
Oct 4
Waning Gibbous
Oct 8
Last Quarter
Oct 15
New
Oct 21
First Quarter
Oct 29
Full

Hourly Weather History & Observations

Time (MDT) Temp. Windchill Dew Point Humidity Pressure Visibility Wind Dir Wind Speed Gust Speed Precip Events Conditions
12:15 AM 44.6 °F - 35.6 °F 71% 30.15 in - Calm Calm - N/A   Clear
12:35 AM 44.6 °F 43.1 °F 33.8 °F 66% 30.15 in - West 3.5 mph - N/A   Clear
12:55 AM 42.8 °F 41.1 °F 35.6 °F 76% 30.15 in - WNW 3.5 mph - N/A   Clear
1:15 AM 48.2 °F - 33.8 °F 58% 30.15 in - West 3.5 mph - N/A   Clear
1:35 AM 46.4 °F - 32.0 °F 57% 30.15 in - Calm Calm - N/A   Clear
1:55 AM 46.4 °F - 33.8 °F 62% 30.14 in - Calm Calm - N/A   Clear
2:15 AM 46.4 °F - 33.8 °F 62% 30.14 in - Calm Calm - N/A   Clear
2:35 AM 46.4 °F - 33.8 °F 62% 30.14 in - Calm Calm - N/A   Clear
2:55 AM 50.0 °F - 32.0 °F 50% 30.14 in - Calm Calm - N/A   Clear
3:15 AM 46.4 °F - 32.0 °F 57% 30.14 in - Calm Calm - N/A   Clear
3:35 AM 44.6 °F - 32.0 °F 61% 30.14 in - Calm Calm - N/A   Clear
3:55 AM 46.4 °F - 32.0 °F 57% 30.14 in - Calm Calm - N/A   Clear
4:15 AM 51.8 °F - 30.2 °F 44% 30.15 in - Calm Calm - N/A   Clear
4:35 AM 53.6 °F - 30.2 °F 41% 30.13 in - NE 3.5 mph - N/A   Clear
4:55 AM 46.4 °F - 32.0 °F 57% 30.13 in - Calm Calm - N/A   Clear
5:15 AM 48.2 °F - 32.0 °F 54% 30.13 in - Calm Calm - N/A   Clear
5:35 AM 41.0 °F 38.0 °F 32.0 °F 70% 30.13 in - South 4.6 mph - N/A   Clear
5:55 AM 41.0 °F 39.0 °F 32.0 °F 70% 30.13 in - SSW 3.5 mph - N/A   Clear
6:15 AM 41.0 °F 38.0 °F 32.0 °F 70% 30.13 in - South 4.6 mph - N/A   Clear
6:35 AM 39.2 °F 35.9 °F 33.8 °F 81% 30.13 in - SSE 4.6 mph - N/A   Clear
6:55 AM 39.2 °F 35.0 °F 33.8 °F 81% 30.13 in - SSE 5.8 mph - N/A   Clear
7:15 AM 37.4 °F 33.8 °F 32.0 °F 81% 30.14 in - SSE 4.6 mph - N/A   Clear
7:35 AM 39.2 °F 35.0 °F 33.8 °F 81% 30.14 in - SSE 5.8 mph - N/A   Clear
7:55 AM 39.2 °F 35.0 °F 33.8 °F 81% 30.14 in - SSE 5.8 mph - N/A   Clear
8:15 AM 37.4 °F 34.9 °F 33.8 °F 87% 30.14 in - SE 3.5 mph - N/A   Clear
8:35 AM 39.2 °F 35.0 °F 33.8 °F 81% 30.14 in - SSE 5.8 mph - N/A   Clear
8:55 AM 39.2 °F 35.9 °F 33.8 °F 81% 30.15 in - SE 4.6 mph - N/A   Clear
9:15 AM 41.0 °F 37.1 °F 35.6 °F 81% 30.15 in - SSE 5.8 mph - N/A   Clear
9:35 AM 44.6 °F 43.1 °F 37.4 °F 76% 30.15 in - South 3.5 mph - N/A   Clear
9:55 AM 46.4 °F 45.2 °F 37.4 °F 71% 30.16 in - SSE 3.5 mph - N/A   Clear
10:15 AM 50.0 °F - 37.4 °F 62% 30.16 in - South 3.5 mph - N/A   Clear
10:35 AM 53.6 °F - 37.4 °F 54% 30.16 in - Calm Calm - N/A   Clear
10:55 AM 59.0 °F - 37.4 °F 45% 30.16 in - Calm Calm - N/A   Clear
11:15 AM 62.6 °F - 33.8 °F 34% 30.16 in - Calm Calm - N/A   Clear
11:35 AM 68.0 °F - 28.4 °F 23% 30.16 in - North 6.9 mph - N/A   Clear
11:55 AM 69.8 °F - 26.6 °F 20% 30.16 in - ENE 6.9 mph - N/A   Clear
12:35 PM 71.6 °F - 26.6 °F 19% 30.15 in - ENE 10.4 mph - N/A   Clear
12:55 PM 71.6 °F - 24.8 °F 17% 30.15 in - ENE 11.5 mph 18.4 mph N/A   Clear
1:15 PM 73.4 °F - 23.0 °F 15% 30.14 in - ENE 10.4 mph - N/A   Clear
1:35 PM 73.4 °F - 23.0 °F 15% 30.14 in - NE 11.5 mph - N/A   Clear
1:55 PM 75.2 °F - 23.0 °F 14% 30.14 in - East 11.5 mph - N/A   Clear
2:15 PM 75.2 °F - 23.0 °F 14% 30.14 in - ENE 12.7 mph 16.1 mph N/A   Clear
2:35 PM 75.2 °F - 24.8 °F 15% 30.13 in - North 8.1 mph - N/A   Clear
2:55 PM 75.2 °F - 30.2 °F 19% 30.13 in - NNW 6.9 mph - N/A   Clear
3:15 PM 75.2 °F - 30.2 °F 19% 30.13 in - WNW 9.2 mph - N/A   Clear
3:35 PM 75.2 °F - 28.4 °F 18% 30.12 in - North 3.5 mph - N/A   Clear
3:55 PM 77.0 °F - 24.8 °F 14% 30.12 in - ENE 8.1 mph - N/A   Clear
4:15 PM 77.0 °F - 23.0 °F 13% 30.12 in - East 10.4 mph - N/A   Clear
4:55 PM 75.2 °F - 24.8 °F 15% 30.12 in - ENE 5.8 mph - N/A   Clear
5:15 PM 77.0 °F - 21.2 °F 12% 30.12 in - East 6.9 mph - N/A   Clear
5:35 PM 75.2 °F - 21.2 °F 13% 30.12 in - ENE 10.4 mph - N/A   Clear
5:55 PM 75.2 °F - 21.2 °F 13% 30.12 in - ENE 9.2 mph - N/A   Clear
6:15 PM 75.2 °F - 21.2 °F 13% 30.12 in - ENE 8.1 mph - N/A   Clear
6:35 PM 75.2 °F - 23.0 °F 14% 30.12 in - NE 10.4 mph - N/A   Clear
6:55 PM 73.4 °F - 23.0 °F 15% 30.12 in - NE 6.9 mph - N/A   Clear
7:15 PM 69.8 °F - 24.8 °F 18% 30.13 in - NE 4.6 mph - N/A   Clear
7:35 PM 68.0 °F - 24.8 °F 20% 30.13 in - NE 4.6 mph - N/A   Clear
7:55 PM 66.2 °F - 24.8 °F 21% 30.13 in - NE 5.8 mph - N/A   Clear
8:15 PM 66.2 °F - 23.0 °F 19% 30.14 in - ENE 3.5 mph - N/A   Clear
8:35 PM 57.2 °F - 30.2 °F 36% 30.14 in - Calm Calm - N/A   Clear
8:55 PM 55.4 °F - 33.8 °F 44% 30.14 in - Calm Calm - N/A   Clear
9:15 PM 53.6 °F - 35.6 °F 51% 30.14 in - Calm Calm - N/A   Clear
9:35 PM 51.8 °F - 35.6 °F 54% 30.15 in - Calm Calm - N/A   Clear
9:55 PM 51.8 °F - 35.6 °F 54% 30.15 in - South 3.5 mph - N/A   Clear
10:15 PM 50.0 °F - 33.8 °F 54% 30.14 in - Calm Calm - N/A   Clear
10:35 PM 50.0 °F - 33.8 °F 54% 30.15 in - WSW 3.5 mph - N/A   Clear
10:55 PM 50.0 °F - 32.0 °F 50% 30.15 in - SSE 3.5 mph - N/A   Clear
11:15 PM 51.8 °F - 32.0 °F 47% 30.15 in - Calm Calm - N/A   Clear
11:35 PM 48.2 °F - 32.0 °F 54% 30.16 in - WSW 4.6 mph - N/A   Clear
11:55 PM 48.2 °F - 33.8 °F 58% 30.16 in - Calm Calm - N/A   Clear